Skip Page Navigation
NASA JPL Caltech
NASA Logo - Jet Propulsion Laboratory + View the NASA Portal
+ Center for Near-Earth Object Studies
JPL Home Earth Solar System Stars & Galaxies Technology
JPL Solar System Dynamics
BODIES ORBITS EPHEMERIDES TOOLS PHYSICAL DATA DISCOVERY FAQ SITE MAP
JPL Small-Body Database Browser
Search: [ help ]  
243219 (2007 VA1)
Classification: Main-belt Asteroid          SPK-ID: 2243219
Ephemeris | Orbit Diagram | Orbital Elements | Mission Design | Physical Parameters | Discovery Circumstances ]

[ show orbit diagram ]
Orbital Elements at Epoch 2459000.5 (2020-May-31.0) TDB
Reference: JPL 19 (heliocentric ecliptic J2000)
 Element Value Uncertainty (1-sigma)   Units 
e .06049517906440077 7.4472e-08  
a 2.662960795269476 2.837e-08 au
q 2.50186450511817 1.8674e-07 au
i 28.72792422675876 5.1645e-06 deg
node 276.2070817228442 1.6671e-05 deg
peri 359.8206960230132 7.8055e-05 deg
M 135.7861095703591 7.7781e-05 deg
tp 2458401.814926195397
(2018-Oct-10.31492620)
0.00034323 TDB
period 1587.250914335826
4.35
2.5364e-05
6.944e-08
d
yr
n .2268072405871882 3.6244e-09 deg/d
Q 2.824057085420782 3.0086e-08 au
  Orbit Determination Parameters
   # obs. used (total)      693  
   data-arc span      6740 days (18.45 yr)  
   first obs. used      2001-06-24  
   last obs. used      2019-12-07  
   planetary ephem.      DE431  
   SB-pert. ephem.      SB431-N16  
   condition code      0  
   norm. resid. RMS      .44897  
   source      ORB  
   producer      Otto Matic  
   solution date      2020-Aug-25 16:44:25  

Additional Information
 Earth MOID = 1.48546 au 
 Jupiter MOID = 2.32635 au 
 T_jup = 3.206 
[ show covariance matrix ]

Ephemeris | Orbit Diagram | Orbital Elements | Mission Design | Physical Parameters | Discovery Circumstances ]

Physical Parameter Table
Parameter Symbol Value Units Sigma Reference Notes
absolute magnitude H 14.5   n/a MPO503158  
diameter diameter 7.369 km 0.081 urn:nasa:pds:neowise_diameters_albedos::2.0[mainbelt] (http://adsabs.harvard.edu/abs/2011ApJ...741...68M)  
geometric albedo albedo 0.053   0.004 urn:nasa:pds:neowise_diameters_albedos::2.0[mainbelt] (http://adsabs.harvard.edu/abs/2011ApJ...741...68M)  

243219 (2007 VA1)          Discovered 2007-Nov-02 by Mt. Lemmon Survey at Mount Lemmon
Reference: 20100626/Numbers.arcLast Updated: 2010-06-28

Alternate Designations
 2007 VA1 = 2006 VC149 
Ephemeris | Orbit Diagram | Orbital Elements | Mission Design | Physical Parameters | Discovery Circumstances ]
ABOUT SSD CREDITS/AWARDS PRIVACY/COPYRIGHT GLOSSARY LINKS
FirstGov 2020-Oct-26 02:14 UT
(server date/time)  
NASA Home Page
Site Manager:   Ryan S. Park
Webmaster  Alan B. Chamberlin